Location: 5810 Zion Rd, Cleves, OH 45002, USA
(39.1922°N, 84.7113°W)
Time: 20:44:04
(UTC-05:00)

Courier 1B Rocket - Pass Details

Date: 07 December 2019
Orbit: 920 x 1202 km, 28.2° (Epoch: 19 January)

Event Time Altitude Azimuth Distance (km) Brightness Sun altitude
Rises 07:46:07 0° 226° (SW) 3,731 7.9 -0.6°
Reaches altitude 10° 07:49:30 10° 211° (SSW) 2,733 7.4 0.0°
Maximum altitude 07:54:17 21° 164° (SSE) 1,976 7.4 0.8°
Drops below altitude 10° 07:58:55 10° 117° (ESE) 2,633 9.7 1.6°
Sets 08:02:06 0° 102° (ESE) 3,558 9.6 2.1°
